| time (UTC) | temp F | wind direction | speed MPH | gust MPH | rain 1hr in | rain 24hr in | rain mn in | humidity % | barometer mb |
| 20260506090033 | 75 | 182 | 1.0 | 8.0 | 0.00 | 0.00 | 0.00 | 5 | 1006.9 |
| 20260506084533 | 75 | 200 | 0.0 | 4.0 | 0.00 | 0.00 | 0.00 | 7 | 1006.8 |
| 20260506083031 | 75 | 215 | 2.0 | 6.0 | 0.00 | 0.00 | 0.00 | 8 | 1006.8 |
| 20260506081529 | 76 | 182 | 2.0 | 8.0 | 0.00 | 0.00 | 0.00 | 10 | 1006.9 |
| 20260506073024 | 76 | 203 | 2.0 | 6.0 | 0.00 | 0.00 | 0.00 | 14 | 1007.2 |
| 20260506071525 | 76 | 202 | 1.0 | 7.0 | 0.00 | 0.00 | 0.00 | 15 | 1007.5 |
| 20260506061529 | 76 | 204 | 1.0 | 8.0 | 0.00 | 0.00 | 0.00 | 19 | 1007.6 |
| 20260506044517 | 77 | 173 | 2.0 | 7.0 | 0.00 | 0.00 | 0.00 | 24 | 1007.5 |
| 20260506043014 | 77 | 199 | 2.0 | 7.0 | 0.00 | 0.00 | 0.00 | 26 | 1007.5 |
| 20260506041508 | 77 | 173 | 2.0 | 7.0 | 0.00 | 0.00 | 0.00 | 28 | 1007.3 |
| 20260506040008 | 77 | 197 | 1.0 | 9.0 | 0.00 | 0.00 | 0.00 | 30 | 1007.1 |
| 20260506034507 | 78 | 182 | 1.0 | 10.0 | 0.00 | 0.00 | 0.00 | 33 | 1007.0 |
| 20260506033007 | 78 | 172 | 3.0 | 9.0 | 0.00 | 0.00 | 0.00 | 36 | 1006.7 |
| 20260506031513 | 78 | 180 | 2.0 | 8.0 | 0.00 | 0.00 | 0.00 | 37 | 1006.6 |
| 20260506030007 | 78 | 209 | 2.0 | 9.0 | 0.00 | 0.00 | 0.00 | 42 | 1006.4 |
| 20260506024505 | 79 | 169 | 3.0 | 15.0 | 0.00 | 0.00 | 0.00 | 47 | 1006.1 |
| 20260506023005 | 79 | 190 | 5.0 | 10.0 | 0.00 | 0.00 | 0.00 | 53 | 1005.9 |
| 20260506021503 | 80 | 163 | 3.0 | 10.0 | 0.00 | 0.00 | 0.00 | 58 | 1005.4 |
| 20260506020005 | 80 | 179 | 4.0 | 7.0 | 0.00 | 0.00 | 0.00 | 60 | 1005.2 |
| 20260506014503 | 81 | 192 | 4.0 | 8.0 | 0.00 | 0.00 | 0.00 | 62 | 1005.1 |
| 20260506013003 | 81 | 194 | 3.0 | 8.0 | 0.00 | 0.00 | 0.00 | 64 | 1005.0 |
| 20260506011503 | 82 | 204 | 1.0 | 5.0 | 0.00 | 0.00 | 0.00 | 64 | 1005.2 |
| 20260506004628 | 82 | 177 | 1.0 | 4.0 | 0.00 | 0.00 | 0.00 | 65 | 1005.1 |
| 20260506003059 | 82 | 173 | 1.0 | 7.0 | 0.00 | 0.00 | 0.00 | 66 | 1004.9 |
| 20260506001601 | 83 | 222 | 2.0 | 7.0 | 0.00 | 0.00 | 0.00 | 66 | 1004.9 |
| 20260506000058 | 83 | 171 | 1.0 | 5.0 | 0.00 | 0.00 | 0.00 | 66 | 1004.7 |
| 20260505234615 | 83 | 197 | 1.0 | 7.0 | 0.00 | 0.00 | 0.00 | 66 | 1004.7 |
| 20260505233057 | 83 | 200 | 0.0 | 7.0 | 0.00 | 0.00 | 0.00 | 66 | 1004.6 |
| 20260505231558 | 83 | 207 | 0.0 | 10.0 | 0.00 | 0.00 | 0.00 | 66 | 1004.6 |
| 20260505230056 | 83 | 201 | 0.0 | 8.0 | 0.00 | 0.00 | 0.00 | 66 | 1004.5 |
| 20260505224555 | 83 | 215 | 3.0 | 9.0 | 0.00 | 0.00 | 0.00 | 66 | 1004.5 |
| 20260505223102 | 83 | 211 | 3.0 | 8.0 | 0.00 | 0.00 | 0.00 | 66 | 1004.4 |
| 20260505221607 | 83 | 223 | 3.0 | 7.0 | 0.00 | 0.00 | 0.00 | 66 | 1004.3 |
| 20260505220121 | 84 | 167 | 3.0 | 10.0 | 0.00 | 0.00 | 0.00 | 66 | 1004.6 |
| 20260505214608 | 83 | 196 | 1.0 | 5.0 | 0.00 | 0.00 | 0.00 | 66 | 1004.8 |
| 20260505213049 | 83 | 221 | 3.0 | 11.0 | 0.00 | 0.00 | 0.00 | 66 | 1005.0 |
| 20260505211554 | 84 | 217 | 5.0 | 11.0 | 0.00 | 0.00 | 0.00 | 66 | 1004.9 |
| 20260505210044 | 83 | 223 | 2.0 | 8.0 | 0.00 | 0.00 | 0.00 | 66 | 1005.3 |
| 20260505204541 | 82 | 199 | 3.0 | 12.0 | 0.00 | 0.00 | 0.00 | 66 | 1005.5 |
| 20260505203038 | 82 | 186 | 3.0 | 8.0 | 0.00 | 0.00 | 0.00 | 65 | 1005.9 |
| 20260505201536 | 81 | 203 | 1.0 | 10.0 | 0.00 | 0.00 | 0.00 | 65 | 1006.2 |
| 20260505200037 | 82 | 160 | 4.0 | 12.0 | 0.00 | 0.00 | 0.00 | 65 | 1006.3 |
| 20260505194533 | 81 | 192 | 2.0 | 11.0 | 0.00 | 0.00 | 0.00 | 65 | 1006.5 |
| 20260505193033 | 81 | 194 | 3.0 | 10.0 | 0.00 | 0.00 | 0.00 | 64 | 1006.5 |
| 20260505191532 | 81 | 220 | 2.0 | 9.0 | 0.00 | 0.00 | 0.00 | 64 | 1006.8 |
| 20260505190044 | 81 | 187 | 3.0 | 9.0 | 0.00 | 0.00 | 0.00 | 62 | 1006.8 |
| 20260505184529 | 80 | 198 | 3.0 | 10.0 | 0.00 | 0.00 | 0.00 | 60 | 1007.1 |
| 20260505183040 | 80 | 213 | 1.0 | 6.0 | 0.00 | 0.00 | 0.00 | 56 | 1007.3 |
| 20260505181522 | 78 | 190 | 3.0 | 9.0 | 0.00 | 0.00 | 0.00 | 51 | 1007.4 |
| 20260505180017 | 77 | 213 | 1.0 | 5.0 | 0.00 | 0.00 | 0.00 | 48 | 1007.6 |
| 20260505174513 | 76 | 187 | 3.0 | 7.0 | 0.00 | 0.00 | 0.00 | 43 | 1007.8 |
| 20260505173019 | 76 | 221 | 0.0 | 5.0 | 0.00 | 0.00 | 0.00 | 38 | 1008.1 |
| 20260505171508 | 75 | 207 | 0.0 | 6.0 | 0.00 | 0.00 | 0.00 | 37 | 1008.2 |
| 20260505170010 | 75 | 213 | 0.0 | 4.0 | 0.00 | 0.00 | 0.00 | 36 | 1008.2 |
| 20260505164505 | 74 | 182 | 1.0 | 6.0 | 0.00 | 0.00 | 0.00 | 31 | 1008.1 |
| 20260505163003 | 74 | 202 | 1.0 | 6.0 | 0.00 | 0.00 | 0.00 | 25 | 1008.1 |
| 20260505161601 | 73 | 216 | 0.0 | 5.0 | 0.00 | 0.00 | 0.00 | 22 | 1008.2 |
| 20260505160109 | 73 | 215 | 1.0 | 6.0 | 0.00 | 0.00 | 0.00 | 19 | 1008.2 |
| 20260505153055 | 72 | 220 | 2.0 | 7.0 | 0.00 | 0.00 | 0.00 | 12 | 1008.3 |
| 20260505151553 | 71 | 216 | 2.0 | 5.0 | 0.00 | 0.00 | 0.00 | 9 | 1008.1 |
| 20260505124521 | 0 | 0.0 | 0.0 | 0.00 | 0.00 | 0.00 | 1006.9 | ||
| 20260505123017 | 0 | 0.0 | 0.0 | 0.00 | 0.00 | 0.00 | 1006.8 | ||
| 20260505121513 | 0 | 0.0 | 0.0 | 0.00 | 0.00 | 0.00 | 1006.6 | ||
| 20260505120009 | 0 | 0.0 | 0.0 | 0.00 | 0.00 | 0.00 | 1006.7 | ||
| 20260505114503 | 0 | 0.0 | 0.0 | 0.00 | 0.00 | 0.00 | 1006.5 | ||
| 20260505113002 | 70 | 205 | 1.0 | 10.0 | 0.00 | 0.00 | 0.00 | 14 | 1006.4 |
| 20260505111601 | 70 | 223 | 0.0 | 5.0 | 0.00 | 0.00 | 0.00 | 14 | 1006.5 |
| 20260505110109 | 70 | 210 | 1.0 | 8.0 | 0.00 | 0.00 | 0.00 | 15 | 1006.6 |
| 20260505101556 | 70 | 182 | 1.0 | 11.0 | 0.00 | 0.00 | 0.00 | 19 | 1006.6 |
| 20260505100055 | 70 | 217 | 3.0 | 10.0 | 0.00 | 0.00 | 0.00 | 21 | 1006.8 |
| 20260505094554 | 70 | 179 | 3.0 | 12.0 | 0.00 | 0.00 | 0.00 | 23 | 1006.5 |
| 20260505093052 | 70 | 238 | 1.0 | 7.0 | 0.00 | 0.00 | 0.00 | 24 | 1006.7 |
| 20260505091605 | 70 | 200 | 2.0 | 10.0 | 0.00 | 0.00 | 0.00 | 25 | 1006.6 |